Location: Borderline Observatory
(42.7345°N, 72.8696°W)
Time: 12:46:31
(UTC-04:00)

Daily predictions for brighter satellites

Satellite Brightness Start Highest point End
(mag) Time Altitude Azimuth Time Altitude Azimuth Time Altitude Azimuth
ATLAS 3B R/B 4.5 20:42:48 10° WSW 20:49:40 40° NW 20:56:16 10° NNE
Shenzhou-11 Module 3.1 20:47:41 10° W 20:50:30 33° SSW 20:53:19 10° SE
Cosmos 1816 Rocket 4.5 20:45:22 10° S 20:51:31 81° E 20:57:41 10° N
ATLAS 5 CENTAUR R/B 3.4 20:47:46 10° NNW 20:53:06 34° NE 20:58:53 10° ESE
Cosmos 1933 4.3 20:50:14 10° NNW 20:54:08 50° W 20:58:01 10° S
YAOGAN 6 2.9 20:50:50 10° SSE 20:54:25 51° ENE 20:58:02 10° N
Cosmos 2346 Rocket 4.5 20:48:50 10° S 20:54:48 67° E 21:00:49 10° NNE
Cosmos 1939 Rocket 2.9 20:51:24 10° SSE 20:55:32 82° ENE 20:59:40 10° N
Okean 1-7 3.7 20:57:17 10° N 21:01:26 38° ENE 21:05:32 10° SE
Cosmos 1937 Rocket 3.9 20:57:15 10° SSW 21:02:21 68° WNW 21:07:31 10° NNE
H-2A ROCKET BODY 3.6 21:01:36 10° S 21:02:56 11° SSE 21:04:42 10° SE
Aureole 3 3.7 21:00:28 10° SSE 21:03:05 26° E 21:05:39 10° NNE
GPS 2-04 Rocket1 3.7 21:01:34 10° WSW 21:04:45 27° S 21:07:35 11° SE
H-2A R/B 3.6 21:01:55 10° ESE 21:05:59 22° ENE 21:10:01 10° NNE
ARGOS 4.0 21:06:08 10° SE 21:10:58 35° ENE 21:15:48 10° N
Meteor 1-29 3.0 21:09:48 10° NNE 21:13:16 57° E 21:16:42 10° S
DNEPR-1 R/B 4.3 21:08:24 10° S 21:13:18 38° ESE 21:17:33 10° NE
Cosmos 1703 Rocket 3.5 21:09:40 10° N 21:14:07 79° E 21:18:29 10° S
Meteor 2-3 Rocket 4.0 21:14:12 10° SSW 21:19:54 74° W 21:25:36 10° N
Cosmos 1408 3.1 21:18:18 10° SSE 21:21:48 41° E 21:25:20 10° NNE
Milstar 3 4.4 21:14:40 10° SW 21:24:20 27° S 21:29:45 14° SE
Cosmos 1782 2.9 21:21:55 10° N 21:25:53 58° E 21:29:11 14° SSE
Cosmos 1733 Rocket 4.4 21:24:43 15° SE 21:26:52 22° E 21:30:11 10° NE
ERS-1 Rocket 3.0 21:23:31 10° SSE 21:28:27 73° ENE 21:33:30 10° N
Cosmos 1825 2.3 21:28:21 10° S 21:32:02 52° E 21:35:44 10° NNE
Cosmos 2344 3.9 21:25:04 10° S 21:32:11 43° ESE 21:39:51 10° NE
SL-08 RB Rocket 4.4 21:28:54 16° SE 21:32:15 40° ENE 21:36:36 10° N
Cosmos 1869 Rocket 3.5 21:29:16 10° S 21:33:36 87° W 21:37:59 10° N
BREEZE-M DEB (TANK) 3.4 21:32:23 10° NW 21:35:18 55° NNE 21:45:32 10° ESE
Cosmos 1048 Rocket 4.1 21:30:24 10° NNW 21:35:42 64° ENE 21:39:39 18° SE
Helios 1B rocket 3.1 21:32:31 10° N 21:36:35 59° WNW 21:40:36 10° SSW
Cosmos 2084 3.7 21:34:40 10° NW 21:38:24 52° WSW 21:41:16 17° SSE
USA 215 3.3 21:35:07 15° ESE 21:40:39 80° NE 21:47:14 10° NW
MetOp-A 4.1 21:40:51 14° SSE 21:45:33 87° ENE 21:50:57 10° NNW
Cosmos 1862 3.7 21:43:53 20° SSE 21:46:14 43° E 21:50:02 10° NNE
Lacrosse 4 Rocket 1.9 21:42:28 10° NNW 21:46:54 55° ENE 21:49:28 23° SE
Cosmos 2221 Rocket 4.0 21:44:16 10° NNW 21:48:39 63° W 21:52:52 11° S
ISS -2.8 21:50:11 10° WSW 21:53:21 48° NNW 21:56:31 10° NE
Cosmos 1943 Rocket 2.1 21:48:03 10° SSW 21:53:39 80° ESE 21:59:13 10° NNE
Terra 3.1 21:54:14 19° ESE 21:56:23 27° ENE 22:00:21 10° N
deb Kosmos-1763 4.2 21:56:03 10° NNW 21:59:50 76° WSW 22:01:44 27° S
Cosmos 1674 Rocket 4.1 21:58:50 10° N 22:02:56 40° ENE 22:04:29 29° ESE
Tiangong 2 3.2 22:01:04 10° WSW 22:03:04 15° SSW 22:03:23 15° SSW
SPOT 1/Viking Rocket 3.6 22:00:53 24° SSE 22:03:57 66° ENE 22:09:08 10° N
CENTAUR R/B 2.6 22:00:12 10° SW 22:06:14 83° NW 22:13:11 10° NE
Cosmos 372 Rocket 4.0 22:01:28 10° SSW 22:06:36 80° WNW 22:11:44 10° NNE
Cosmos 1340 2.8 22:02:59 10° NNW 22:06:46 71° W 22:08:45 26° S
Cosmos 1437 4.0 22:07:28 10° NNE 22:10:17 27° ENE 22:10:20 27° ENE
BREEZE M DEB (TANK) 3.9 21:58:16 10° WSW 22:10:28 89° SE 22:14:05 10° ENE
Cosmos 1092 Rocket 4.3 22:07:21 25° SSE 22:10:33 45° E 22:16:20 10° NNE
Nadezhda 4 Rocket 4.0 22:06:49 19° S 22:11:22 66° E 22:17:28 10° NNE
Cosmos 1269 Rocket 4.2 22:06:25 10° NNW 22:11:42 69° WSW 22:14:56 24° S
SPOT 5 3.1 22:08:10 21° S 22:11:47 81° WSW 22:17:07 10° NNW
COSMOS 2455 4.1 22:06:11 10° WSW 22:11:54 44° NW 22:17:38 10° NNE
Cosmos 2369 Rocket 3.5 22:10:09 10° SW 22:15:28 41° WNW 22:20:52 10° NNE
GEOS 3 Rocket 4.1 22:13:40 24° ESE 22:16:29 49° NE 22:21:33 10° NNW
Cosmos 1125 Rocket 4.2 22:12:04 10° SW 22:17:12 55° WNW 22:22:21 10° NNE
H-2A R/B 3.3 22:16:52 22° E 22:17:46 24° ENE 22:21:06 10° NNE
YAOGAN 11 4.4 22:16:37 26° S 22:19:08 69° WSW 22:23:40 10° NNW
Cosmos 1833 4.3 22:15:11 10° NNW 22:21:00 80° WSW 22:24:01 29° SSE
Cosmos 1606 4.3 22:17:48 10° NNW 22:21:09 31° W 22:23:47 14° SSW
Lacrosse 5 rocket 3.0 22:22:41 10° W 22:25:56 31° NNW 22:29:16 10° NNE
Okean 3 3.9 22:22:32 10° N 22:26:33 43° ENE 22:27:17 39° ESE
IGS 5A 3.8 22:29:14 42° ESE 22:30:07 50° ENE 22:34:08 10° N
Cosmos 2297 Rocket 4.2 22:29:36 10° N 22:33:17 17° NE 22:36:27 12° E
ATLAS 5 CENTAUR R/B 2.8 22:32:13 10° NW 22:38:05 54° WSW 22:41:08 30° S
Cosmos 1908 Rocket 3.7 22:38:32 50° SE 22:39:17 58° E 22:43:40 10° NNE
Meteor 1-27 Rocket 4.3 22:34:16 10° NNW 22:39:52 53° W 22:43:17 22° SSW
Cosmos 1867 3.6 22:34:41 10° NNW 22:40:10 73° NE 22:42:05 41° SE
H-2A R/B 2.7 22:42:09 26° SSW 22:45:01 53° W 22:50:15 10° NNW
Cosmos 494 Rocket 3.9 22:42:36 10° NNW 22:47:51 90° WSW 22:49:23 47° SSE
Okean 2 Rocket 4.3 22:48:28 28° E 22:48:28 28° E 22:51:51 10° NNE
Cosmos 1656 Rocket 3.7 22:48:00 17° SSW 22:52:18 77° WNW 22:57:52 10° NNE
deb Chang Zheng 4 3.8 22:55:49 10° NNE 23:00:03 52° E 23:00:03 52° E
Cosmos 2195 Rocket 4.4 22:58:09 40° S 23:00:38 77° E 23:06:58 10° N
Meteor 1-20 Rocket 4.4 23:01:57 47° SE 23:03:01 53° E 23:08:33 10° NNE
CZ-4B R/B 3.7 23:00:23 10° NNE 23:05:09 46° E 23:05:09 46° E
Cosmos 1782 Rocket 3.5 23:06:37 66° E 23:06:38 66° E 23:11:00 10° NNE
Meteor 1-25 Rocket 4.3 23:07:14 51° SSE 23:08:35 67° E 23:14:23 10° NNE
Sich 1 Rocket 3.8 23:12:21 53° SW 23:13:10 66° W 23:17:34 10° N
Cosmos 1655 Rocket 4.0 23:13:17 49° SSE 23:14:50 66° E 23:21:01 10° NNE
Cosmos 2227 Rocket 2.8 23:18:02 10° NNW 23:23:27 45° ENE 23:24:44 38° E
CZ-2C R/B 3.7 23:18:59 10° NE 23:22:59 29° E 23:22:59 29° E
USA 215 4.3 23:22:28 27° SSW 23:24:02 30° SW 23:29:39 10° WNW
Meteor 1-14 Rocket 4.4 23:22:21 41° SSW 23:24:29 72° W 23:30:19 10° N
Lacrosse 4 Rocket 3.7 23:22:25 10° WNW 23:25:09 16° WSW 23:25:48 16° WSW
Cosmos 1975 Rocket 3.0 23:23:34 10° N 23:28:03 79° W 23:28:04 79° WSW
Cosmos 2219 3.4 23:23:39 10° NNW 23:29:19 61° WSW 23:30:23 52° SSW
Cosmos 2026 Rocket 4.0 23:28:05 42° SSW 23:30:14 74° W 23:36:31 10° N
ISS -0.9 23:28:01 10° NW 23:30:23 18° N 23:32:45 10° NE
Cosmos 1633 4.0 23:33:17 33° NNE 23:33:17 33° NNE 23:35:25 10° NNE
CZ-4C R/B 4.4 23:26:56 10° NNW 23:32:42 27° NE 23:39:01 10° E
ALOS 2 4.0 23:32:47 28° ENE 23:32:47 28° ENE 23:36:26 10° N
Cosmos 1812 3.5 23:29:59 10° NNW 23:33:20 48° WNW 23:33:20 48° WNW
Terra 2.9 23:33:08 32° WSW 23:33:58 34° W 23:38:19 10° NNW
ATLAS CENTAUR R/B 1.8 23:36:09 55° NW 23:36:09 55° NW 23:39:45 10° NNE
BREEZE-M DEB (TANK) 3.6 23:36:03 48° SSW 23:37:31 74° SE 23:52:42 10° ENE
Cosmos 2251 Rocket 4.4 23:35:25 10° NW 23:40:12 37° WSW 23:40:56 35° WSW
Cosmos 2151 Rocket 4.2 23:44:35 47° NE 23:44:35 47° NE 23:48:08 10° NNE
Meteor 1-11 Rocket 4.2 23:43:43 46° E 23:44:00 46° E 23:49:39 10° NNE
Gbstr 26 Del rocket 3.5 23:40:13 10° NW 23:44:06 50° N 23:44:06 50° N
ARGOS Delta rocket 3.8 23:41:41 10° N 23:46:09 64° WNW 23:46:12 64° W
Cosmos 2369 4.0 23:46:56 50° E 23:46:56 50° E 23:52:05 10° NE
Meteor 2-11 Rocket 4.4 23:41:09 10° NNW 23:47:18 74° W 23:48:29 58° SSW
CZ-4C R/B 3.9 23:50:08 59° WNW 23:50:08 59° WNW 23:53:47 10° NNW
Cosmos 1980 Rocket 4.2 23:51:05 15° E 23:51:05 15° E 23:53:04 10° ENE
Meteor 2-4 Rocket 4.2 23:45:47 10° N 23:50:54 43° ENE 23:51:11 43° E
Cosmos 1536 Rocket 4.1 23:47:20 10° N 23:51:02 51° NE 23:51:02 51° NE
S3M 3.9 23:45:45 10° N 23:51:54 83° W 23:52:56 63° S
H-2A R/B 3.5 23:53:59 28° W 23:53:59 28° W 23:57:15 10° NW
Cosmos 405 Rocket 4.3 23:51:23 10° NNW 23:53:54 29° WNW 23:53:54 29° WNW
Okean 1 4.2 23:51:45 10° NNW 23:54:53 46° NW 23:54:53 46° NW
